Weather History for KHZY - February, 2013

Change the Weather History Date:

Friday, February 15, 2013

  Actual Average (KYNG) Record (KYNG)
Temperature  
Mean Temperature 30 °F 28 °F  
Max Temperature 36 °F 36 °F 65 °F (1954)
Min Temperature 25 °F 21 °F -4 °F (1963)
Degree Days  
Heating Degree Days 34 37  
Month to date heating degree days 568  
Since 1 July heating degree days 4191  
Cooling Degree Days 0 0  
Month to date cooling degree days 0  
Year to date cooling degree days 0  
Moisture  
Dew Point 20 °F    
Average Humidity 67    
Maximum Humidity 75    
Minimum Humidity 55    
Precipitation  
Precipitation 0.00 in 0.07 in - ()
Month to date precipitation 1.12  
Year to date precipitation 3.67  
Snow  
Snow 0.00 in 0.40 in - ()
Month to date snowfall 6.7  
Since 1 July snowfall 42.7  
Snow Depth -    
Sea Level Pressure  
Sea Level Pressure 30.03 in    
Wind  
Wind Speed 13 mph (WNW)    
Max Wind Speed 28 mph    
Max Gust Speed 39 mph    
Visibility 10 miles    
Events Snow    
T = Trace of Precipitation, MM = Missing Value Source: NWS Daily Summary

Daily Weather History Graph

Daily Weather History Graph

Search for Another Location

Airport or City:

Trip Planner

Search our weather history database for the weather conditions in past years. The results will help you decide how hot, cold, wet, or windy it might be!

Date:

Astronomy

Feb. 15, 2013 Rise Set
Actual Time 7:18 AM EST 5:56 PM EST
Civil Twilight 6:49 AM EST 6:24 PM EST
Nautical Twilight 6:16 AM EST 6:57 PM EST
Astronomical Twilight 5:44 AM EST 7:29 PM EST
Moon 9:47 AM EST (2/15) No Moon Set
Length of Visible Light 11h 35m
Length of Day
10h 38m
Waxing Crescent, 30% of the Moon is Illuminated
Feb 15
Waxing Crescent
Feb 17
First Quarter
Feb 25
Full
Mar 4
Last Quarter
Mar 11
New

Hourly Weather History & Observations

Time (EST) Temp. Windchill Dew Point Humidity Pressure Visibility Wind Dir Wind Speed Gust Speed Precip Events Conditions
12:53 AM 36.0 °F 23.5 °F 21.0 °F 55% 29.89 in 10.0 mi West 27.6 mph 39.1 mph N/A   Overcast
1:53 AM 35.1 °F 24.8 °F 21.9 °F 59% 29.89 in 10.0 mi West 17.3 mph - N/A   Mostly Cloudy
2:53 AM 34.0 °F 25.0 °F 21.0 °F 59% 29.91 in 10.0 mi WSW 12.7 mph 23.0 mph N/A   Mostly Cloudy
3:53 AM 34.0 °F 25.5 °F 21.9 °F 61% 29.92 in 10.0 mi West 11.5 mph 23.0 mph N/A   Overcast
5:53 AM 32.0 °F 24.2 °F 23.0 °F 69% 29.96 in 10.0 mi West 9.2 mph - N/A   Overcast
6:14 AM 32.0 °F 24.2 °F 23.0 °F 69% 29.94 in 10.0 mi West 9.2 mph 19.6 mph N/A   Overcast
6:53 AM 32.0 °F 25.6 °F 24.1 °F 73% 29.98 in 10.0 mi West 6.9 mph - N/A   Overcast
7:53 AM 32.0 °F 24.2 °F 24.1 °F 73% 30.00 in 10.0 mi West 9.2 mph - N/A   Overcast
8:53 AM 32.0 °F 23.6 °F 24.1 °F 73% 30.02 in 10.0 mi WSW 10.4 mph - N/A   Overcast
9:53 AM 32.0 °F 24.8 °F 25.0 °F 75% 30.04 in 6.0 mi WSW 8.1 mph - 0.00 in Snow Light Snow
10:10 AM 32.0 °F 24.8 °F 24.8 °F 75% 30.01 in 9.0 mi West 8.1 mph - 0.00 in   Overcast
10:17 AM 32.0 °F 23.0 °F 24.8 °F 75% 30.01 in 10.0 mi West 11.5 mph - 0.00 in   Overcast
10:53 AM 32.0 °F 24.2 °F 24.1 °F 73% 30.04 in 10.0 mi West 9.2 mph - 0.00 in   Overcast
11:13 AM 32.0 °F 22.5 °F 23.0 °F 69% 30.02 in 10.0 mi West 12.7 mph - 0.00 in   Overcast
11:53 AM 32.0 °F 23.6 °F 21.9 °F 66% 30.05 in 10.0 mi West 10.4 mph - 0.00 in   Overcast
12:53 PM 30.9 °F 22.2 °F 21.9 °F 69% 30.04 in 9.0 mi West 10.4 mph - 0.00 in Snow Light Snow
1:10 PM 30.2 °F 21.3 °F 21.2 °F 69% 30.01 in 10.0 mi WNW 10.4 mph - 0.00 in   Overcast
1:53 PM 32.0 °F 24.2 °F 19.0 °F 59% 30.03 in 10.0 mi WNW 9.2 mph - 0.00 in   Overcast
2:53 PM 32.0 °F 24.8 °F 19.0 °F 59% 30.03 in 10.0 mi NNW 8.1 mph - N/A   Overcast
3:53 PM 30.0 °F 21.1 °F 21.0 °F 69% 30.05 in 9.0 mi NW 10.4 mph - 0.00 in Snow Light Snow
4:53 PM 28.0 °F 18.1 °F 17.1 °F 63% 30.07 in 9.0 mi NNW 11.5 mph - 0.00 in   Overcast
5:25 PM 28.4 °F 22.2 °F 17.6 °F 64% 30.05 in 10.0 mi NW 5.8 mph - N/A   Overcast
5:53 PM 28.0 °F 20.0 °F 16.0 °F 61% 30.09 in 10.0 mi NNW 8.1 mph - N/A   Overcast
6:53 PM 27.0 °F 18.7 °F 15.1 °F 61% 30.10 in 10.0 mi NW 8.1 mph - N/A   Overcast
7:53 PM 27.0 °F 18.7 °F 17.1 °F 66% 30.10 in 10.0 mi NW 8.1 mph - N/A   Overcast
8:53 PM 26.1 °F 20.5 °F 17.1 °F 69% 30.11 in 9.0 mi NNE 4.6 mph - 0.00 in   Overcast
9:02 PM 26.6 °F 19.1 °F 17.6 °F 69% 30.08 in 10.0 mi NNE 6.9 mph - N/A   Overcast
9:11 PM 26.6 °F 21.2 °F 17.6 °F 69% 30.08 in 10.0 mi NNE 4.6 mph - N/A   Overcast
9:53 PM 25.0 °F 19.3 °F 16.0 °F 69% 30.12 in 10.0 mi NNE 4.6 mph - N/A   Overcast
10:53 PM 25.0 °F 20.7 °F 15.1 °F 66% 30.11 in 9.0 mi NNE 3.5 mph - 0.00 in Snow Light Snow
11:53 PM 25.0 °F 18.1 °F 15.1 °F 66% 30.10 in 10.0 mi NNE 5.8 mph - 0.00 in   Overcast